Location: A�t Bou Chrif
(32.7193°N, 5.2385°W)
Time: 00:49:01
(UTC+00:00)

Cosmos 1992 Rocket - Pass Details

Date: 08 August 2020
Orbit: 759 x 765 km, 74.0° (Epoch: 18 September)

Event Time Altitude Azimuth Distance (km) Brightness Sun altitude
Rises 20:16:06 0° 346° (NNW) 3,234 7.9 -13.0°
Reaches altitude 10° 20:18:30 10° 349° (N) 2,304 7.1 -13.5°
Maximum altitude 20:23:43 68° 72° (ENE) 819 4.0 -14.4°
Enters shadow 20:27:36 18° 153° (SSE) 1,803 5.4 -15.1°
